XBGPA MMTO-MMMY

Flight info

Callsign XBGPA
Flight time 2h 39m
Altitude 16000
Route TLC V18 MEX V15 CVM V23 RETOS RETO1A
Aircraft DA62/L-VGDW/C

Departure

Time 2026-05-03 21:36
Airport Adolfo López Mateos International Airport (MMTO)

Arrival

Time 2026-05-04 00:15
Airport Monterrey International Airport (MMMY)
Time Latitude Longitude Altitude Speed Heading
2026-05-03 21:09 19.34234 -99.57244 8470 ft 0 kts 336°
2026-05-03 21:26 19.34237 -99.57245 8470 ft 1 kts 352°
2026-05-03 21:27 19.34243 -99.57241 8470 ft 1 kts 69°
2026-05-03 21:27 19.34227 -99.57227 8470 ft 6 kts 148°
2026-05-03 21:27 19.34207 -99.57191 8470 ft 5 kts 74°
2026-05-03 21:27 19.34213 -99.57174 8470 ft 2 kts 68°
2026-05-03 21:28 19.34219 -99.57159 8470 ft 3 kts 68°
2026-05-03 21:28 19.34228 -99.57135 8470 ft 4 kts 67°
2026-05-03 21:28 19.34240 -99.57106 8470 ft 5 kts 66°
2026-05-03 21:28 19.34270 -99.57099 8470 ft 6 kts 338°
2026-05-03 21:29 19.34311 -99.57118 8470 ft 6 kts 337°
2026-05-03 21:29 19.34349 -99.57123 8470 ft 5 kts 20°
2026-05-03 21:29 19.34373 -99.57101 8470 ft 4 kts 53°
2026-05-03 21:29 19.34388 -99.57080 8470 ft 3 kts 52°
2026-05-03 21:30 19.34398 -99.57067 8470 ft 0 kts 53°
2026-05-03 21:34 19.34401 -99.57063 8470 ft 2 kts 52°
2026-05-03 21:34 19.34413 -99.57046 8470 ft 4 kts 52°
2026-05-03 21:34 19.34434 -99.57019 8470 ft 6 kts 53°
2026-05-03 21:34 19.34459 -99.56982 8470 ft 7 kts 57°
2026-05-03 21:35 19.34448 -99.56931 8470 ft 13 kts 152°
2026-05-03 21:35 19.34262 -99.56851 8470 ft 47 kts 159°
2026-05-03 21:35 19.33857 -99.56666 8470 ft 78 kts 159°
2026-05-03 21:35 19.33287 -99.56406 8480 ft 99 kts 159°
2026-05-03 21:36 19.32631 -99.56103 8595 ft 107 kts 160°
2026-05-03 21:36 19.31935 -99.55792 8829 ft 111 kts 160°
2026-05-03 21:36 19.31215 -99.55473 9089 ft 114 kts 160°
2026-05-03 21:36 19.30477 -99.55146 9349 ft 116 kts 160°
2026-05-03 21:37 19.29721 -99.54813 9606 ft 119 kts 161°
2026-05-03 21:37 19.28957 -99.54474 9901 ft 117 kts 161°
2026-05-03 21:37 19.28218 -99.54154 10224 ft 112 kts 161°
2026-05-03 21:37 19.27505 -99.53850 10550 ft 108 kts 161°
2026-05-03 21:38 19.26823 -99.53561 10860 ft 104 kts 161°
2026-05-03 21:38 19.26216 -99.53174 11118 ft 108 kts 126°
2026-05-03 21:38 19.26184 -99.52352 11304 ft 121 kts 68°
2026-05-03 21:38 19.26492 -99.51556 11647 ft 115 kts 67°
2026-05-03 21:39 19.26807 -99.50791 11957 ft 112 kts 68°
2026-05-03 21:39 19.27108 -99.50041 12268 ft 109 kts 67°
2026-05-03 21:39 19.27398 -99.49303 12547 ft 109 kts 68°
2026-05-03 21:39 19.27688 -99.48557 12805 ft 111 kts 68°
2026-05-03 21:40 19.27981 -99.47794 13048 ft 115 kts 68°
2026-05-03 21:40 19.28288 -99.46978 13292 ft 120 kts 68°
2026-05-03 21:40 19.28598 -99.46145 13532 ft 124 kts 68°
2026-05-03 21:40 19.28911 -99.45292 13769 ft 128 kts 67°
2026-05-03 21:41 19.29237 -99.44391 14012 ft 132 kts 68°
2026-05-03 21:41 19.29562 -99.43490 14276 ft 134 kts 68°
2026-05-03 21:41 19.29901 -99.42555 14557 ft 134 kts 66°
2026-05-03 21:41 19.30237 -99.41634 14836 ft 135 kts 67°
2026-05-03 21:42 19.30570 -99.40709 15111 ft 135 kts 66°
2026-05-03 21:42 19.30900 -99.39782 15389 ft 134 kts 66°
2026-05-03 21:42 19.31216 -99.38874 15676 ft 132 kts 67°
2026-05-03 21:42 19.31529 -99.37963 15933 ft 133 kts 67°
2026-05-03 21:43 19.31866 -99.37005 16025 ft 147 kts 64°
2026-05-03 21:43 19.32288 -99.35956 16011 ft 165 kts 64°
2026-05-03 21:43 19.32770 -99.34783 16008 ft 178 kts 64°
2026-05-03 21:43 19.33271 -99.33555 15993 ft 187 kts 64°
2026-05-03 21:44 19.33807 -99.32269 15989 ft 192 kts 64°
2026-05-03 21:44 19.34344 -99.30966 15985 ft 193 kts 64°
2026-05-03 21:44 19.34859 -99.29717 15982 ft 193 kts 64°
2026-05-03 21:44 19.35401 -99.28418 15975 ft 194 kts 64°
2026-05-03 21:45 19.35944 -99.27115 15974 ft 194 kts 63°
2026-05-03 21:45 19.36477 -99.25826 15973 ft 194 kts 64°
2026-05-03 21:45 19.37033 -99.24496 15996 ft 194 kts 63°
2026-05-03 21:45 19.37549 -99.23266 16004 ft 192 kts 63°
2026-05-03 21:46 19.38094 -99.21962 16025 ft 184 kts 64°
2026-05-03 21:46 19.38608 -99.20736 16075 ft 184 kts 63°
2026-05-03 21:46 19.39126 -99.19473 16119 ft 191 kts 63°
2026-05-03 21:46 19.39674 -99.18136 16349 ft 211 kts 63°
2026-05-03 21:47 19.40329 -99.16607 16052 ft 247 kts 64°
2026-05-03 21:47 19.41053 -99.14928 15890 ft 257 kts 64°
2026-05-03 21:47 19.41761 -99.13207 15721 ft 257 kts 64°
2026-05-03 21:47 19.42489 -99.11489 15665 ft 243 kts 65°
2026-05-03 21:48 19.43139 -99.09941 16013 ft 208 kts 63°
2026-05-03 21:48 19.43678 -99.08660 16088 ft 178 kts 63°
2026-05-03 21:48 19.44255 -99.07547 16248 ft 169 kts 48°
2026-05-03 21:48 19.45129 -99.06772 16333 ft 160 kts 25°
2026-05-03 21:49 19.46160 -99.06404 16303 ft 162 kts
2026-05-03 21:49 19.47308 -99.06161 16329 ft 173 kts
2026-05-03 21:49 19.48474 -99.05918 16332 ft 167 kts
2026-05-03 21:49 19.49252 -99.05758 16360 ft 176 kts
2026-05-03 21:50 19.51069 -99.05391 16001 ft 221 kts
2026-05-03 21:50 19.52678 -99.05048 15982 ft 238 kts
2026-05-03 21:50 19.54361 -99.04699 15874 ft 247 kts
2026-05-03 21:50 19.55999 -99.04378 16090 ft 238 kts
2026-05-03 21:51 19.57075 -99.04155 15759 ft 249 kts
2026-05-03 21:51 19.59303 -99.03647 15752 ft 240 kts
2026-05-03 21:51 19.60846 -99.03349 15818 ft 215 kts
2026-05-03 21:51 19.62269 -99.03068 15925 ft 202 kts
2026-05-03 21:52 19.63618 -99.02775 16099 ft 194 kts
2026-05-03 21:52 19.64966 -99.02500 16455 ft 204 kts
2026-05-03 21:52 19.66471 -99.02182 16233 ft 237 kts
2026-05-03 21:52 19.68196 -99.01833 15926 ft 259 kts
2026-05-03 21:53 19.69883 -99.01483 15728 ft 228 kts
2026-05-03 21:53 19.71369 -99.01151 16087 ft 211 kts
2026-05-03 21:53 19.72811 -99.00855 15826 ft 218 kts
2026-05-03 21:53 19.74331 -99.00544 15906 ft 223 kts
2026-05-03 21:54 19.75886 -99.00392 15661 ft 226 kts 359°
2026-05-03 21:54 19.77420 -99.00290 15941 ft 209 kts
2026-05-03 21:54 19.78803 -99.00196 16042 ft 193 kts
2026-05-03 21:54 19.80107 -99.00085 15947 ft 187 kts
2026-05-03 21:55 19.80960 -99.00009 15923 ft 181 kts
2026-05-03 21:55 19.82560 -98.99876 15930 ft 172 kts
2026-05-03 21:55 19.83755 -98.99774 15932 ft 174 kts
2026-05-03 21:55 19.84967 -98.99673 15938 ft 175 kts
2026-05-03 21:56 19.85774 -98.99606 15938 ft 176 kts
2026-05-03 21:56 19.86980 -98.99499 15995 ft 173 kts
2026-05-03 21:56 19.88181 -98.99400 16002 ft 173 kts
2026-05-03 21:56 19.89379 -98.99301 15993 ft 173 kts
2026-05-03 21:57 19.90577 -98.99195 15991 ft 173 kts
2026-05-03 21:57 19.91779 -98.99094 15993 ft 173 kts
2026-05-03 21:57 19.92982 -98.98991 15998 ft 174 kts
2026-05-03 21:57 19.94189 -98.98887 15996 ft 173 kts
2026-05-03 21:58 19.95387 -98.98787 15996 ft 173 kts
2026-05-03 21:58 19.96584 -98.98689 16003 ft 172 kts
2026-05-03 21:58 19.97783 -98.98578 15980 ft 173 kts
2026-05-03 21:58 19.98977 -98.98477 15986 ft 171 kts
2026-05-03 21:59 20.00168 -98.98379 15970 ft 171 kts
2026-05-03 21:59 20.01355 -98.98279 15969 ft 170 kts 359°
2026-05-03 21:59 20.02524 -98.98180 15972 ft 169 kts 360°
2026-05-03 21:59 20.03692 -98.98080 15976 ft 168 kts 360°
2026-05-03 22:00 20.04857 -98.97986 15980 ft 167 kts 360°
2026-05-03 22:00 20.06023 -98.97881 15952 ft 169 kts 359°
2026-05-03 22:00 20.07188 -98.97780 15961 ft 166 kts 359°
2026-05-03 22:00 20.08343 -98.97682 15938 ft 169 kts 360°
2026-05-03 22:01 20.09526 -98.97581 15936 ft 171 kts 359°
2026-05-03 22:01 20.10709 -98.97479 15936 ft 175 kts 360°
2026-05-03 22:01 20.11927 -98.97371 15934 ft 177 kts 360°
2026-05-03 22:01 20.13152 -98.97271 15928 ft 178 kts 360°
2026-05-03 22:02 20.14407 -98.97163 15928 ft 178 kts 360°
2026-05-03 22:02 20.15647 -98.97054 15930 ft 179 kts 360°
2026-05-03 22:02 20.16891 -98.96952 15927 ft 180 kts 360°
2026-05-03 22:02 20.18120 -98.96846 15927 ft 180 kts 360°
2026-05-03 22:03 20.19387 -98.96735 15926 ft 180 kts 360°
2026-05-03 22:03 20.20635 -98.96628 15924 ft 180 kts 359°
2026-05-03 22:03 20.21876 -98.96525 15923 ft 181 kts 360°
2026-05-03 22:03 20.23145 -98.96415 15923 ft 181 kts 360°
2026-05-03 22:04 20.24402 -98.96305 15920 ft 181 kts 360°
2026-05-03 22:04 20.25656 -98.96202 15920 ft 182 kts 360°
2026-05-03 22:04 20.26921 -98.96096 15919 ft 182 kts 360°
2026-05-03 22:04 20.28167 -98.95988 15920 ft 182 kts 360°
2026-05-03 22:05 20.29428 -98.95878 15920 ft 182 kts 360°
2026-05-03 22:05 20.30694 -98.95769 15915 ft 182 kts 360°
2026-05-03 22:05 20.31957 -98.95661 15915 ft 182 kts 360°
2026-05-03 22:05 20.33224 -98.95552 15906 ft 183 kts 360°
2026-05-03 22:06 20.34489 -98.95447 15969 ft 180 kts 360°
2026-05-03 22:06 20.35724 -98.95341 16011 ft 179 kts 360°
2026-05-03 22:06 20.36970 -98.95233 16004 ft 180 kts
2026-05-03 22:06 20.38229 -98.95124 16008 ft 182 kts 360°
2026-05-03 22:07 20.39493 -98.95017 16004 ft 183 kts 360°
2026-05-03 22:07 20.40763 -98.94908 16006 ft 183 kts 360°
2026-05-03 22:07 20.42034 -98.94799 16007 ft 183 kts 360°
2026-05-03 22:07 20.43306 -98.94692 16005 ft 184 kts 360°
2026-05-03 22:08 20.44589 -98.94583 16005 ft 185 kts 360°
2026-05-03 22:08 20.45867 -98.94473 16006 ft 185 kts 360°
2026-05-03 22:08 20.47148 -98.94363 16007 ft 185 kts 360°
2026-05-03 22:08 20.48427 -98.94253 16005 ft 185 kts 360°
2026-05-03 22:09 20.49711 -98.94141 16007 ft 185 kts 360°
2026-05-03 22:09 20.50994 -98.94031 16009 ft 185 kts
2026-05-03 22:09 20.52271 -98.93922 16009 ft 185 kts 360°
2026-05-03 22:10 20.54836 -98.93709 16012 ft 185 kts 360°
2026-05-03 22:10 20.56118 -98.93596 16011 ft 185 kts 360°
2026-05-03 22:10 20.57399 -98.93490 16010 ft 185 kts 359°
2026-05-03 22:10 20.58681 -98.93378 16010 ft 185 kts 360°
2026-05-03 22:11 20.59959 -98.93271 16012 ft 185 kts 360°
2026-05-03 22:11 20.61243 -98.93159 16008 ft 185 kts 359°
2026-05-03 22:11 20.62528 -98.93051 15978 ft 186 kts 360°
2026-05-03 22:11 20.63822 -98.92941 15974 ft 186 kts 359°
2026-05-03 22:12 20.65111 -98.92829 15973 ft 186 kts 360°
2026-05-03 22:12 20.66395 -98.92721 15975 ft 185 kts 359°
2026-05-03 22:12 20.67677 -98.92609 15975 ft 185 kts 360°
2026-05-03 22:12 20.68959 -98.92502 15977 ft 185 kts 360°
2026-05-03 22:13 20.70241 -98.92389 15977 ft 185 kts 360°
2026-05-03 22:13 20.71526 -98.92282 15976 ft 185 kts 360°
2026-05-03 22:13 20.72805 -98.92170 15977 ft 185 kts 359°
2026-05-03 22:13 20.74087 -98.92064 15979 ft 185 kts 360°
2026-05-03 22:14 20.75373 -98.91950 15977 ft 185 kts 360°
2026-05-03 22:14 20.76654 -98.91842 15980 ft 185 kts 359°
2026-05-03 22:14 20.77938 -98.91729 15981 ft 185 kts 360°
2026-05-03 22:14 20.79222 -98.91619 15981 ft 185 kts 359°
2026-05-03 22:15 20.80490 -98.91510 15983 ft 185 kts 359°
2026-05-03 22:15 20.81791 -98.91400 15986 ft 185 kts 359°
2026-05-03 22:15 20.83054 -98.91290 15985 ft 185 kts 359°
2026-05-03 22:15 20.84334 -98.91178 15985 ft 185 kts 359°
2026-05-03 22:16 20.85617 -98.91072 15983 ft 184 kts 359°
2026-05-03 22:16 20.86910 -98.90957 15983 ft 184 kts 359°
2026-05-03 22:16 20.88173 -98.90852 15981 ft 184 kts 359°
2026-05-03 22:16 20.89449 -98.90738 15984 ft 184 kts 359°
2026-05-03 22:17 20.90726 -98.90630 15984 ft 184 kts 359°
2026-05-03 22:17 20.92000 -98.90519 15985 ft 184 kts 359°
2026-05-03 22:17 20.93274 -98.90411 15987 ft 184 kts 359°
2026-05-03 22:17 20.94544 -98.90299 15988 ft 184 kts 359°
2026-05-03 22:18 20.95818 -98.90191 15990 ft 184 kts 359°
2026-05-03 22:18 20.97092 -98.90081 15990 ft 184 kts 359°
2026-05-03 22:18 20.98367 -98.89972 15990 ft 184 kts 359°
2026-05-03 22:18 20.99644 -98.89863 15990 ft 184 kts 359°
2026-05-03 22:19 21.00917 -98.89754 15995 ft 184 kts 359°
2026-05-03 22:19 21.02193 -98.89645 15996 ft 184 kts 359°
2026-05-03 22:19 21.03465 -98.89532 15997 ft 184 kts 359°
2026-05-03 22:19 21.04742 -98.89419 15996 ft 184 kts 359°
2026-05-03 22:20 21.06018 -98.89309 15997 ft 184 kts 359°
2026-05-03 22:20 21.07293 -98.89200 15997 ft 184 kts 359°
2026-05-03 22:20 21.08556 -98.89093 15996 ft 184 kts 359°
2026-05-03 22:20 21.09836 -98.88983 15997 ft 184 kts 359°
2026-05-03 22:21 21.11116 -98.88874 15995 ft 184 kts 359°
2026-05-03 22:21 21.12389 -98.88763 15998 ft 184 kts 359°
2026-05-03 22:21 21.13661 -98.88648 15998 ft 184 kts 359°
2026-05-03 22:21 21.14940 -98.88537 15998 ft 184 kts 359°
2026-05-03 22:22 21.16211 -98.88425 16001 ft 184 kts 359°
2026-05-03 22:22 21.17485 -98.88317 16002 ft 183 kts 359°
2026-05-03 22:22 21.18758 -98.88204 16003 ft 184 kts 359°
2026-05-03 22:22 21.20030 -98.88095 16003 ft 183 kts 358°
2026-05-03 22:23 21.21303 -98.87985 16003 ft 183 kts 359°
2026-05-03 22:23 21.22572 -98.87873 16003 ft 183 kts 358°
2026-05-03 22:23 21.23844 -98.87766 16003 ft 183 kts 359°
2026-05-03 22:23 21.25118 -98.87652 16005 ft 183 kts 359°
2026-05-03 22:24 21.26390 -98.87546 16004 ft 183 kts 359°
2026-05-03 22:24 21.27659 -98.87433 16007 ft 183 kts 359°
2026-05-03 22:24 21.28928 -98.87326 16005 ft 183 kts 358°
2026-05-03 22:24 21.30202 -98.87213 16006 ft 183 kts 359°
2026-05-03 22:25 21.31473 -98.87105 16010 ft 183 kts 359°
2026-05-03 22:25 21.32742 -98.86993 16011 ft 184 kts 359°
2026-05-03 22:25 21.34019 -98.86884 16011 ft 184 kts 358°
2026-05-03 22:25 21.35290 -98.86773 16011 ft 184 kts 359°
2026-05-03 22:26 21.36566 -98.86662 16011 ft 184 kts 358°
2026-05-03 22:26 21.37841 -98.86552 16012 ft 184 kts 359°
2026-05-03 22:26 21.39095 -98.86441 16012 ft 184 kts 358°
2026-05-03 22:26 21.40370 -98.86333 16012 ft 184 kts 359°
2026-05-03 22:27 21.41642 -98.86219 16012 ft 184 kts 359°
2026-05-03 22:27 21.42918 -98.86112 16011 ft 184 kts 359°
2026-05-03 22:27 21.44197 -98.85998 16012 ft 184 kts 359°
2026-05-03 22:27 21.45470 -98.85890 16012 ft 184 kts 359°
2026-05-03 22:28 21.46761 -98.85777 16012 ft 184 kts 358°
2026-05-03 22:28 21.48018 -98.85670 16013 ft 184 kts 359°
2026-05-03 22:28 21.49293 -98.85558 16016 ft 184 kts 358°
2026-05-03 22:28 21.50564 -98.85447 16016 ft 184 kts 359°
2026-05-03 22:29 21.51838 -98.85338 16017 ft 184 kts 358°
2026-05-03 22:29 21.53115 -98.85225 16012 ft 184 kts 358°
2026-05-03 22:29 21.54391 -98.85116 16010 ft 184 kts 358°
2026-05-03 22:29 21.55665 -98.85003 16011 ft 184 kts 358°
2026-05-03 22:30 21.56939 -98.84895 16011 ft 184 kts 358°
2026-05-03 22:30 21.58217 -98.84782 16010 ft 184 kts 358°
2026-05-03 22:30 21.59492 -98.84670 16010 ft 184 kts 359°
2026-05-03 22:30 21.60768 -98.84562 16010 ft 184 kts 358°
2026-05-03 22:31 21.62042 -98.84448 16010 ft 184 kts 358°
2026-05-03 22:31 21.63315 -98.84339 16010 ft 184 kts 359°
2026-05-03 22:31 21.64593 -98.84227 16010 ft 184 kts 358°
2026-05-03 22:31 21.65865 -98.84116 16013 ft 184 kts 358°
2026-05-03 22:32 21.67144 -98.84005 16013 ft 184 kts 359°
2026-05-03 22:32 21.68417 -98.83894 16014 ft 184 kts 358°
2026-05-03 22:32 21.69692 -98.83782 16016 ft 184 kts 359°
2026-05-03 22:32 21.70965 -98.83673 16016 ft 184 kts 358°
2026-05-03 22:33 21.72243 -98.83559 16016 ft 184 kts 358°
2026-05-03 22:33 21.73517 -98.83450 16016 ft 184 kts 358°
2026-05-03 22:33 21.74794 -98.83337 16016 ft 184 kts 358°
2026-05-03 22:33 21.76068 -98.83226 16016 ft 184 kts 359°
2026-05-03 22:34 21.77344 -98.83116 16016 ft 184 kts 358°
2026-05-03 22:34 21.78615 -98.83005 16017 ft 184 kts 358°
2026-05-03 22:34 21.79867 -98.82894 16016 ft 184 kts 358°
2026-05-03 22:34 21.81153 -98.82784 16003 ft 185 kts 358°
2026-05-03 22:35 21.82447 -98.82668 15999 ft 184 kts 358°
2026-05-03 22:35 21.83727 -98.82558 16001 ft 184 kts 358°
2026-05-03 22:35 21.85005 -98.82446 16000 ft 184 kts 358°
2026-05-03 22:35 21.86281 -98.82334 16003 ft 184 kts 359°
2026-05-03 22:36 21.87541 -98.82226 16015 ft 183 kts 358°
2026-05-03 22:36 21.88826 -98.82111 16029 ft 183 kts 358°
2026-05-03 22:36 21.90078 -98.82006 16031 ft 183 kts 358°
2026-05-03 22:36 21.91349 -98.81893 16032 ft 183 kts 358°
2026-05-03 22:37 21.92619 -98.81782 16032 ft 183 kts 358°
2026-05-03 22:37 21.93896 -98.81673 16027 ft 184 kts 358°
2026-05-03 22:37 21.95171 -98.81557 16026 ft 184 kts 358°
2026-05-03 22:37 21.96442 -98.81446 16026 ft 184 kts 358°
2026-05-03 22:38 21.97716 -98.81337 16026 ft 184 kts 358°
2026-05-03 22:38 21.98992 -98.81228 16026 ft 184 kts 358°
2026-05-03 22:38 22.00267 -98.81112 16027 ft 184 kts 358°
2026-05-03 22:38 22.01542 -98.80997 16026 ft 184 kts 358°
2026-05-03 22:39 22.02818 -98.80887 16026 ft 184 kts 357°
2026-05-03 22:39 22.04092 -98.80790 16025 ft 182 kts 353°
2026-05-03 22:39 22.05340 -98.80913 16027 ft 180 kts 347°
2026-05-03 22:39 22.06589 -98.81045 16023 ft 181 kts 348°
2026-05-03 22:40 22.07844 -98.81155 16023 ft 181 kts 349°
2026-05-03 22:40 22.09102 -98.81268 16024 ft 181 kts 348°
2026-05-03 22:40 22.10352 -98.81378 16024 ft 181 kts 349°
2026-05-03 22:40 22.11605 -98.81493 16024 ft 181 kts 348°
2026-05-03 22:41 22.12860 -98.81602 16024 ft 181 kts 348°
2026-05-03 22:41 22.14111 -98.81717 16024 ft 181 kts 348°
2026-05-03 22:41 22.15350 -98.81826 16023 ft 181 kts 348°
2026-05-03 22:41 22.16604 -98.81940 16022 ft 181 kts 349°
2026-05-03 22:42 22.17855 -98.82052 16022 ft 181 kts 348°
2026-05-03 22:42 22.19109 -98.82163 16022 ft 181 kts 348°
2026-05-03 22:42 22.19955 -98.82241 16022 ft 181 kts 348°
2026-05-03 22:42 22.21212 -98.82352 16022 ft 181 kts 348°
2026-05-03 22:43 22.22875 -98.82502 16023 ft 181 kts 349°
2026-05-03 22:43 22.23723 -98.82578 16022 ft 181 kts 348°
2026-05-03 22:43 22.24979 -98.82692 16022 ft 181 kts 349°
2026-05-03 22:43 22.26235 -98.82804 16022 ft 181 kts 348°
2026-05-03 22:44 22.27487 -98.82916 16022 ft 181 kts 349°
2026-05-03 22:44 22.28744 -98.83031 16022 ft 181 kts 348°
2026-05-03 22:44 22.30001 -98.83141 16018 ft 181 kts 348°
2026-05-03 22:44 22.31260 -98.83257 16017 ft 181 kts 348°
2026-05-03 22:45 22.32520 -98.83368 16017 ft 181 kts 348°
2026-05-03 22:45 22.33773 -98.83481 16017 ft 181 kts 349°
2026-05-03 22:45 22.35018 -98.83594 16010 ft 181 kts 348°
2026-05-03 22:45 22.36290 -98.83706 16009 ft 181 kts 348°
2026-05-03 22:46 22.37550 -98.83822 16008 ft 181 kts 348°
2026-05-03 22:46 22.38788 -98.83931 16008 ft 181 kts 348°
2026-05-03 22:46 22.40046 -98.84046 16008 ft 181 kts 349°
2026-05-03 22:46 22.41301 -98.84159 16008 ft 181 kts 348°
2026-05-03 22:47 22.42559 -98.84271 16008 ft 181 kts 348°
2026-05-03 22:47 22.43811 -98.84385 16008 ft 181 kts 348°
2026-05-03 22:47 22.45068 -98.84497 16008 ft 181 kts 348°
2026-05-03 22:47 22.46327 -98.84611 16008 ft 181 kts 349°
2026-05-03 22:48 22.47600 -98.84727 16008 ft 181 kts 348°
2026-05-03 22:48 22.48838 -98.84836 16008 ft 181 kts 348°
2026-05-03 22:48 22.50095 -98.84951 16008 ft 181 kts 348°
2026-05-03 22:48 22.51355 -98.85064 16008 ft 181 kts 348°
2026-05-03 22:49 22.52610 -98.85176 16008 ft 181 kts 349°
2026-05-03 22:49 22.53867 -98.85292 16008 ft 181 kts 348°
2026-05-03 22:49 22.55122 -98.85402 16008 ft 181 kts 348°
2026-05-03 22:49 22.56379 -98.85518 16008 ft 181 kts 348°
2026-05-03 22:50 22.57632 -98.85629 16008 ft 181 kts 348°
2026-05-03 22:50 22.58885 -98.85743 16008 ft 181 kts 349°
2026-05-03 22:50 22.60141 -98.85857 16008 ft 181 kts 348°
2026-05-03 22:50 22.61400 -98.85969 16008 ft 181 kts 349°
2026-05-03 22:51 22.62657 -98.86085 16008 ft 181 kts 348°
2026-05-03 22:51 22.63912 -98.86196 16008 ft 181 kts 348°
2026-05-03 22:51 22.65171 -98.86310 16007 ft 181 kts 348°
2026-05-03 22:51 22.66424 -98.86425 16006 ft 181 kts 348°
2026-05-03 22:52 22.67683 -98.86536 16006 ft 181 kts 348°
2026-05-03 22:52 22.68946 -98.86652 16006 ft 182 kts 348°
2026-05-03 22:52 22.70208 -98.86766 16005 ft 181 kts 348°
2026-05-03 22:52 22.71465 -98.86877 16005 ft 182 kts 348°
2026-05-03 22:53 22.72724 -98.86994 16005 ft 182 kts 348°
2026-05-03 22:53 22.73981 -98.87106 16002 ft 182 kts 348°
2026-05-03 22:53 22.75244 -98.87219 16001 ft 182 kts 348°
2026-05-03 22:53 22.76502 -98.87333 16001 ft 181 kts 348°
2026-05-03 22:54 22.77758 -98.87451 16001 ft 182 kts 348°
2026-05-03 22:54 22.79015 -98.87562 16000 ft 181 kts 348°
2026-05-03 22:54 22.80275 -98.87679 16000 ft 181 kts 348°
2026-05-03 22:54 22.81537 -98.87789 16000 ft 181 kts 348°
2026-05-03 22:55 22.82793 -98.87906 16000 ft 181 kts 348°
2026-05-03 22:55 22.84054 -98.88017 16000 ft 181 kts 348°
2026-05-03 22:55 22.85294 -98.88131 15999 ft 181 kts 348°
2026-05-03 22:55 22.86549 -98.88244 16000 ft 181 kts 348°
2026-05-03 22:56 22.87809 -98.88358 15998 ft 181 kts 348°
2026-05-03 22:56 22.89070 -98.88473 15996 ft 182 kts 348°
2026-05-03 22:56 22.90331 -98.88586 15995 ft 182 kts 348°
2026-05-03 22:56 22.91589 -98.88702 15995 ft 182 kts 348°
2026-05-03 22:57 22.92850 -98.88814 15995 ft 182 kts 348°
2026-05-03 22:57 22.94114 -98.88926 15995 ft 182 kts 348°
2026-05-03 22:57 22.95372 -98.89041 15995 ft 182 kts 348°
2026-05-03 22:57 22.96634 -98.89157 15995 ft 182 kts 348°
2026-05-03 22:58 22.97898 -98.89270 15995 ft 182 kts 348°
2026-05-03 22:58 22.99160 -98.89383 15995 ft 182 kts 348°
2026-05-03 22:58 23.00418 -98.89500 15994 ft 182 kts 348°
2026-05-03 22:58 23.01682 -98.89612 15995 ft 182 kts 348°
2026-05-03 22:59 23.02941 -98.89727 15995 ft 182 kts 349°
2026-05-03 22:59 23.04204 -98.89843 15995 ft 182 kts 348°
2026-05-03 22:59 23.05467 -98.89955 15995 ft 182 kts 348°
2026-05-03 22:59 23.06726 -98.90072 15994 ft 182 kts 348°
2026-05-03 23:00 23.07991 -98.90186 15995 ft 182 kts 348°
2026-05-03 23:00 23.09252 -98.90299 15995 ft 182 kts 348°
2026-05-03 23:00 23.10517 -98.90416 15994 ft 182 kts 348°
2026-05-03 23:00 23.11782 -98.90529 15996 ft 182 kts 348°
2026-05-03 23:01 23.13045 -98.90645 15995 ft 182 kts 348°
2026-05-03 23:01 23.14311 -98.90761 15995 ft 182 kts 348°
2026-05-03 23:01 23.15574 -98.90873 15995 ft 182 kts 348°
2026-05-03 23:01 23.16837 -98.90990 15995 ft 182 kts 348°
2026-05-03 23:02 23.18104 -98.91105 15995 ft 182 kts 348°
2026-05-03 23:02 23.19365 -98.91217 15995 ft 182 kts 348°
2026-05-03 23:02 23.20632 -98.91336 15995 ft 182 kts 348°
2026-05-03 23:02 23.21897 -98.91448 15995 ft 182 kts 348°
2026-05-03 23:03 23.23164 -98.91565 15995 ft 183 kts 348°
2026-05-03 23:03 23.24432 -98.91681 15993 ft 183 kts 348°
2026-05-03 23:03 23.25696 -98.91793 15993 ft 183 kts 348°
2026-05-03 23:03 23.26965 -98.91912 15993 ft 183 kts 348°
2026-05-03 23:04 23.28229 -98.92025 15992 ft 183 kts 348°
2026-05-03 23:04 23.29500 -98.92141 15991 ft 183 kts 348°
2026-05-03 23:04 23.30763 -98.92258 15990 ft 183 kts 348°
2026-05-03 23:04 23.32031 -98.92371 15989 ft 183 kts 348°
2026-05-03 23:05 23.33300 -98.92489 15989 ft 183 kts 348°
2026-05-03 23:05 23.34565 -98.92604 15989 ft 183 kts 348°
2026-05-03 23:05 23.35830 -98.92719 15984 ft 183 kts 348°
2026-05-03 23:05 23.37098 -98.92838 15984 ft 183 kts 348°
2026-05-03 23:06 23.38370 -98.92952 15984 ft 183 kts 348°
2026-05-03 23:06 23.39641 -98.93069 15984 ft 183 kts 348°
2026-05-03 23:06 23.40910 -98.93186 15984 ft 183 kts 348°
2026-05-03 23:06 23.42179 -98.93300 15984 ft 183 kts 348°
2026-05-03 23:07 23.43445 -98.93418 15984 ft 183 kts 348°
2026-05-03 23:07 23.44701 -98.93533 15984 ft 183 kts 348°
2026-05-03 23:07 23.45986 -98.93653 15984 ft 183 kts 348°
2026-05-03 23:07 23.47251 -98.93770 15984 ft 183 kts 348°
2026-05-03 23:08 23.48504 -98.93881 15984 ft 183 kts 348°
2026-05-03 23:08 23.49770 -98.93998 15983 ft 183 kts 348°
2026-05-03 23:08 23.51035 -98.94117 15984 ft 183 kts 348°
2026-05-03 23:08 23.52303 -98.94231 15984 ft 183 kts 348°
2026-05-03 23:09 23.53570 -98.94346 15984 ft 183 kts 348°
2026-05-03 23:09 23.54837 -98.94464 15983 ft 183 kts 348°
2026-05-03 23:09 23.56105 -98.94582 15984 ft 183 kts 348°
2026-05-03 23:09 23.57359 -98.94699 15984 ft 183 kts 348°
2026-05-03 23:10 23.58631 -98.94811 15984 ft 183 kts 348°
2026-05-03 23:10 23.59914 -98.94928 15992 ft 183 kts 348°
2026-05-03 23:10 23.61180 -98.95046 15999 ft 182 kts 348°
2026-05-03 23:10 23.62445 -98.95165 16000 ft 182 kts 348°
2026-05-03 23:11 23.63711 -98.95279 16000 ft 183 kts 348°
2026-05-03 23:11 23.64975 -98.95393 16000 ft 183 kts 348°
2026-05-03 23:11 23.66242 -98.95511 16000 ft 183 kts 348°
2026-05-03 23:11 23.67509 -98.95630 16000 ft 183 kts 348°
2026-05-03 23:12 23.68778 -98.95742 16001 ft 183 kts 348°
2026-05-03 23:12 23.70045 -98.95861 16001 ft 183 kts 348°
2026-05-03 23:12 23.71311 -98.95983 16001 ft 182 kts 347°
2026-05-03 23:12 23.72571 -98.96141 16001 ft 182 kts 347°
2026-05-03 23:13 23.73831 -98.96295 16001 ft 182 kts 347°
2026-05-03 23:13 23.75095 -98.96446 16006 ft 183 kts 347°
2026-05-03 23:13 23.76375 -98.96591 16008 ft 187 kts 347°
2026-05-03 23:13 23.77677 -98.96745 16003 ft 189 kts 347°
2026-05-03 23:14 23.78988 -98.96902 15989 ft 189 kts 347°
2026-05-03 23:14 23.80283 -98.97052 16001 ft 187 kts 347°
2026-05-03 23:14 23.81591 -98.97209 16007 ft 190 kts 347°
2026-05-03 23:14 23.82914 -98.97368 16004 ft 192 kts 347°
2026-05-03 23:15 23.84246 -98.97520 15988 ft 191 kts 347°
2026-05-03 23:15 23.85555 -98.97678 15996 ft 188 kts 347°
2026-05-03 23:15 23.86848 -98.97827 15995 ft 186 kts 347°
2026-05-03 23:15 23.88130 -98.97979 15993 ft 185 kts 347°
2026-05-03 23:16 23.89408 -98.98133 15993 ft 184 kts 347°
2026-05-03 23:16 23.90683 -98.98283 15993 ft 184 kts 347°
2026-05-03 23:16 23.91953 -98.98431 15994 ft 184 kts 347°
2026-05-03 23:16 23.93222 -98.98583 15993 ft 183 kts 347°
2026-05-03 23:17 23.94491 -98.98735 15993 ft 183 kts 347°
2026-05-03 23:17 23.95757 -98.98882 15993 ft 183 kts 347°
2026-05-03 23:17 23.97028 -98.99031 15994 ft 183 kts 347°
2026-05-03 23:17 23.98087 -98.99157 15997 ft 183 kts 347°
2026-05-03 23:18 23.99368 -98.99307 15998 ft 183 kts 347°
2026-05-03 23:18 24.00631 -98.99452 15998 ft 183 kts 346°
2026-05-03 23:18 24.01892 -98.99607 15997 ft 182 kts 346°
2026-05-03 23:18 24.03154 -98.99754 15998 ft 182 kts 346°
2026-05-03 23:19 24.04417 -98.99905 15998 ft 182 kts 346°
2026-05-03 23:19 24.05678 -99.00054 15997 ft 182 kts 346°
2026-05-03 23:19 24.06938 -99.00202 15997 ft 182 kts 346°
2026-05-03 23:19 24.08180 -99.00351 15997 ft 182 kts 346°
2026-05-03 23:20 24.09442 -99.00499 15997 ft 182 kts 346°
2026-05-03 23:20 24.10686 -99.00647 15997 ft 182 kts 347°
2026-05-03 23:20 24.11964 -99.00800 15997 ft 183 kts 346°
2026-05-03 23:20 24.13215 -99.00945 15998 ft 184 kts 346°
2026-05-03 23:21 24.14501 -99.01100 16000 ft 184 kts 346°
2026-05-03 23:21 24.15781 -99.01250 16000 ft 185 kts 346°
2026-05-03 23:21 24.17040 -99.01399 16000 ft 185 kts 347°
2026-05-03 23:21 24.18317 -99.01552 16000 ft 185 kts 346°
2026-05-03 23:22 24.20878 -99.01856 16001 ft 185 kts 346°
2026-05-03 23:22 24.22164 -99.02008 16003 ft 185 kts 346°
2026-05-03 23:22 24.23447 -99.02162 16002 ft 186 kts 347°
2026-05-03 23:23 24.24729 -99.02315 16000 ft 186 kts 346°
2026-05-03 23:23 24.26019 -99.02466 16000 ft 186 kts 346°
2026-05-03 23:23 24.27295 -99.02619 16001 ft 185 kts 347°
2026-05-03 23:23 24.28582 -99.02773 16003 ft 185 kts 346°
2026-05-03 23:24 24.29866 -99.02926 16002 ft 185 kts 346°
2026-05-03 23:24 24.31149 -99.03077 16003 ft 185 kts 347°
2026-05-03 23:24 24.32424 -99.03231 16004 ft 185 kts 346°
2026-05-03 23:24 24.33492 -99.03357 16003 ft 185 kts 346°
2026-05-03 23:25 24.34796 -99.03514 16003 ft 185 kts 347°
2026-05-03 23:25 24.36085 -99.03667 16008 ft 186 kts 346°
2026-05-03 23:25 24.37372 -99.03819 16015 ft 188 kts 347°
2026-05-03 23:25 24.38682 -99.03978 16017 ft 189 kts 346°
2026-05-03 23:26 24.39988 -99.04130 16008 ft 189 kts 347°
2026-05-03 23:26 24.41294 -99.04288 16005 ft 188 kts 346°
2026-05-03 23:26 24.42595 -99.04442 16004 ft 187 kts 346°
2026-05-03 23:26 24.43842 -99.04593 16004 ft 186 kts 347°
2026-05-03 23:27 24.45133 -99.04746 16005 ft 186 kts 346°
2026-05-03 23:27 24.46401 -99.04898 16005 ft 186 kts 347°
2026-05-03 23:27 24.47269 -99.05001 16005 ft 185 kts 346°
2026-05-03 23:27 24.48969 -99.05204 16005 ft 185 kts 347°
2026-05-03 23:28 24.50247 -99.05360 16007 ft 185 kts 346°
2026-05-03 23:28 24.51114 -99.05461 16006 ft 185 kts 347°
2026-05-03 23:28 24.52397 -99.05616 16009 ft 185 kts 346°
2026-05-03 23:28 24.53674 -99.05766 16010 ft 185 kts 346°
2026-05-03 23:29 24.54955 -99.05922 16010 ft 185 kts 346°
2026-05-03 23:29 24.56233 -99.06073 16010 ft 185 kts 346°
2026-05-03 23:29 24.57513 -99.06227 16008 ft 185 kts 347°
2026-05-03 23:29 24.58788 -99.06381 16009 ft 185 kts 346°
2026-05-03 23:30 24.60068 -99.06531 16009 ft 185 kts 347°
2026-05-03 23:30 24.61345 -99.06687 16009 ft 185 kts 346°
2026-05-03 23:30 24.62624 -99.06837 16009 ft 185 kts 346°
2026-05-03 23:30 24.63904 -99.06993 16009 ft 185 kts 347°
2026-05-03 23:31 24.65183 -99.07146 16009 ft 185 kts 346°
2026-05-03 23:31 24.66462 -99.07297 16009 ft 185 kts 347°
2026-05-03 23:31 24.67721 -99.07451 16009 ft 185 kts 346°
2026-05-03 23:31 24.69011 -99.07603 16009 ft 185 kts 346°
2026-05-03 23:32 24.70276 -99.07757 16007 ft 185 kts 346°
2026-05-03 23:32 24.71568 -99.07911 16004 ft 185 kts 346°
2026-05-03 23:32 24.72834 -99.08062 16004 ft 185 kts 347°
2026-05-03 23:32 24.74110 -99.08217 16004 ft 185 kts 346°
2026-05-03 23:33 24.75388 -99.08367 16004 ft 185 kts 347°
2026-05-03 23:33 24.76664 -99.08523 16004 ft 185 kts 346°
2026-05-03 23:33 24.77942 -99.08674 16004 ft 184 kts 346°
2026-05-03 23:33 24.79217 -99.08829 16004 ft 184 kts 347°
2026-05-03 23:34 24.80492 -99.08981 16004 ft 184 kts 346°
2026-05-03 23:34 24.81766 -99.09135 16004 ft 184 kts 347°
2026-05-03 23:34 24.83041 -99.09289 16005 ft 184 kts 346°
2026-05-03 23:34 24.84315 -99.09439 16005 ft 184 kts 347°
2026-05-03 23:35 24.85590 -99.09595 16007 ft 184 kts 346°
2026-05-03 23:35 24.86868 -99.09746 16006 ft 184 kts 346°
2026-05-03 23:35 24.88142 -99.09902 16006 ft 184 kts 347°
2026-05-03 23:35 24.89421 -99.10055 16006 ft 184 kts 346°
2026-05-03 23:36 24.90697 -99.10207 16006 ft 184 kts 347°
2026-05-03 23:36 24.91966 -99.10362 16006 ft 184 kts 346°
2026-05-03 23:36 24.93240 -99.10535 16002 ft 182 kts 341°
2026-05-03 23:36 24.94311 -99.11164 16006 ft 172 kts 315°
2026-05-03 23:37 24.95136 -99.12108 16014 ft 171 kts 308°
2026-05-03 23:37 24.95936 -99.13079 16005 ft 171 kts 308°
2026-05-03 23:37 24.96748 -99.14040 16005 ft 172 kts 309°
2026-05-03 23:37 24.97562 -99.15001 16005 ft 172 kts 309°
2026-05-03 23:38 24.98380 -99.15965 16005 ft 172 kts 308°
2026-05-03 23:38 24.99190 -99.16930 16004 ft 172 kts 309°
2026-05-03 23:38 25.00006 -99.17892 16004 ft 172 kts 309°
2026-05-03 23:38 25.00817 -99.18856 16004 ft 171 kts 308°
2026-05-03 23:39 25.01629 -99.19818 16005 ft 171 kts 309°
2026-05-03 23:39 25.02445 -99.20780 16007 ft 171 kts 309°
2026-05-03 23:39 25.03253 -99.21744 16007 ft 171 kts 309°
2026-05-03 23:39 25.04056 -99.22693 16010 ft 171 kts 309°
2026-05-03 23:40 25.04876 -99.23668 16011 ft 171 kts 308°
2026-05-03 23:40 25.05690 -99.24633 16011 ft 171 kts 309°
2026-05-03 23:40 25.06501 -99.25591 16015 ft 172 kts 308°
2026-05-03 23:40 25.07315 -99.26563 16013 ft 172 kts 309°
2026-05-03 23:41 25.08126 -99.27524 16013 ft 171 kts 309°
2026-05-03 23:41 25.08938 -99.28486 16013 ft 171 kts 308°
2026-05-03 23:41 25.09748 -99.29450 16013 ft 171 kts 309°
2026-05-03 23:41 25.10560 -99.30410 16012 ft 171 kts 308°
2026-05-03 23:42 25.11370 -99.31378 16012 ft 171 kts 309°
2026-05-03 23:42 25.12182 -99.32339 16013 ft 171 kts 309°
2026-05-03 23:42 25.12991 -99.33303 16012 ft 171 kts 308°
2026-05-03 23:42 25.13802 -99.34264 16013 ft 171 kts 309°
2026-05-03 23:43 25.14611 -99.35229 16013 ft 171 kts 308°
2026-05-03 23:43 25.15422 -99.36191 16013 ft 171 kts 309°
2026-05-03 23:43 25.16230 -99.37154 16013 ft 171 kts 308°
2026-05-03 23:43 25.17041 -99.38118 16014 ft 171 kts 309°
2026-05-03 23:44 25.17840 -99.39068 16014 ft 171 kts 308°
2026-05-03 23:44 25.18658 -99.40042 16014 ft 171 kts 309°
2026-05-03 23:44 25.19469 -99.41004 16022 ft 175 kts 308°
2026-05-03 23:44 25.20303 -99.42003 16014 ft 178 kts 309°
2026-05-03 23:45 25.21277 -99.42893 16003 ft 185 kts 327°
2026-05-03 23:45 25.22437 -99.43438 16012 ft 183 kts 330°
2026-05-03 23:45 25.23603 -99.44016 16013 ft 180 kts 328°
2026-05-03 23:45 25.24736 -99.44605 16012 ft 179 kts 328°
2026-05-03 23:46 25.25846 -99.45177 16011 ft 178 kts 328°
2026-05-03 23:46 25.26967 -99.45756 16010 ft 178 kts 328°
2026-05-03 23:46 25.28092 -99.46342 16020 ft 180 kts 328°
2026-05-03 23:46 25.29238 -99.46931 16018 ft 183 kts 329°
2026-05-03 23:47 25.30392 -99.47530 16009 ft 183 kts 328°
2026-05-03 23:47 25.31538 -99.48120 16008 ft 181 kts 328°
2026-05-03 23:47 25.32668 -99.48709 16008 ft 179 kts 328°
2026-05-03 23:47 25.33798 -99.49292 16006 ft 178 kts 328°
2026-05-03 23:48 25.34934 -99.49881 16006 ft 178 kts 329°
2026-05-03 23:48 25.36040 -99.50456 16007 ft 177 kts 328°
2026-05-03 23:48 25.37157 -99.51031 16007 ft 177 kts 328°
2026-05-03 23:48 25.38270 -99.51610 16007 ft 177 kts 328°
2026-05-03 23:49 25.39384 -99.52188 16007 ft 177 kts 328°
2026-05-03 23:49 25.40496 -99.52762 16008 ft 177 kts 328°
2026-05-03 23:49 25.41607 -99.53341 16008 ft 176 kts 328°
2026-05-03 23:49 25.42719 -99.53917 16008 ft 176 kts 328°
2026-05-03 23:50 25.43831 -99.54493 16008 ft 176 kts 328°
2026-05-03 23:50 25.44580 -99.54883 16011 ft 176 kts 328°
2026-05-03 23:50 25.46046 -99.55642 16022 ft 176 kts 328°
2026-05-03 23:50 25.47156 -99.56219 16023 ft 176 kts 328°
2026-05-03 23:51 25.48263 -99.56795 16023 ft 176 kts 328°
2026-05-03 23:51 25.49373 -99.57372 16023 ft 176 kts 328°
2026-05-03 23:51 25.50485 -99.57948 16023 ft 176 kts 329°
2026-05-03 23:51 25.51594 -99.58527 16023 ft 176 kts 328°
2026-05-03 23:52 25.52711 -99.59104 16024 ft 177 kts 328°
2026-05-03 23:52 25.53828 -99.59687 16025 ft 178 kts 328°
2026-05-03 23:52 25.54954 -99.60271 16027 ft 179 kts 328°
2026-05-03 23:52 25.56080 -99.60856 16026 ft 179 kts 329°
2026-05-03 23:53 25.57206 -99.61444 16026 ft 179 kts 328°
2026-05-03 23:53 25.58336 -99.62028 16026 ft 179 kts 328°
2026-05-03 23:53 25.59461 -99.62617 16027 ft 179 kts 328°
2026-05-03 23:53 25.60591 -99.63202 16027 ft 179 kts 328°
2026-05-03 23:54 25.61718 -99.63790 16027 ft 179 kts 328°
2026-05-03 23:54 25.62842 -99.64377 16028 ft 179 kts 328°
2026-05-03 23:54 25.63972 -99.64962 16027 ft 179 kts 328°
2026-05-03 23:54 25.65101 -99.65553 16027 ft 179 kts 328°
2026-05-03 23:55 25.66230 -99.66139 16027 ft 179 kts 328°
2026-05-03 23:55 25.67357 -99.66727 16027 ft 179 kts 328°
2026-05-03 23:55 25.68483 -99.67315 16027 ft 179 kts 328°
2026-05-03 23:55 25.69614 -99.67902 16027 ft 179 kts 328°
2026-05-03 23:56 25.70741 -99.68492 16027 ft 179 kts 328°
2026-05-03 23:56 25.71866 -99.69076 16029 ft 179 kts 328°
2026-05-03 23:56 25.73006 -99.69673 15966 ft 183 kts 328°
2026-05-03 23:56 25.74184 -99.70288 15735 ft 189 kts 329°
2026-05-03 23:57 25.75389 -99.70919 15476 ft 193 kts 329°
2026-05-03 23:57 25.76604 -99.71549 15245 ft 192 kts 329°
2026-05-03 23:57 25.77711 -99.72331 15079 ft 186 kts 311°
2026-05-03 23:57 25.78443 -99.73491 14943 ft 184 kts 298°
2026-05-03 23:58 25.79104 -99.74704 14795 ft 184 kts 300°
2026-05-03 23:58 25.79794 -99.75906 14646 ft 185 kts 300°
2026-05-03 23:58 25.80486 -99.77114 14496 ft 186 kts 300°
2026-05-03 23:58 25.81184 -99.78325 14347 ft 186 kts 300°
2026-05-03 23:59 25.81880 -99.79541 14197 ft 187 kts 301°
2026-05-03 23:59 25.82585 -99.80765 14047 ft 188 kts 300°
2026-05-03 23:59 25.83287 -99.81989 13897 ft 189 kts 301°
2026-05-03 23:59 25.83992 -99.83215 13748 ft 189 kts 300°
2026-05-04 00:00 25.84692 -99.84432 13600 ft 190 kts 301°
2026-05-04 00:00 25.85414 -99.85692 13450 ft 193 kts 300°
2026-05-04 00:00 25.86140 -99.86955 13301 ft 194 kts 301°
2026-05-04 00:00 25.86865 -99.88224 13152 ft 196 kts 301°
2026-05-04 00:01 25.87588 -99.89487 13005 ft 197 kts 301°
2026-05-04 00:01 25.88326 -99.90769 12855 ft 197 kts 301°
2026-05-04 00:01 25.89061 -99.92059 12706 ft 198 kts 301°
2026-05-04 00:01 25.89799 -99.93354 12556 ft 198 kts 301°
2026-05-04 00:02 25.90539 -99.94648 12406 ft 199 kts 301°
2026-05-04 00:02 25.91279 -99.95945 12256 ft 199 kts 301°
2026-05-04 00:02 25.92018 -99.97241 12106 ft 199 kts 301°
2026-05-04 00:02 25.92763 -99.98543 11956 ft 199 kts 301°
2026-05-04 00:03 25.93507 -99.99840 11806 ft 200 kts 301°
2026-05-04 00:03 25.94249 -100.01146 11664 ft 201 kts 301°
2026-05-04 00:03 25.95009 -100.02465 11527 ft 204 kts 301°
2026-05-04 00:03 25.95775 -100.03812 11379 ft 207 kts 301°
2026-05-04 00:04 25.96551 -100.05168 11211 ft 207 kts 301°
2026-05-04 00:04 25.97319 -100.06513 11066 ft 205 kts 301°
2026-05-04 00:04 25.98072 -100.07842 10995 ft 201 kts 301°
2026-05-04 00:04 25.98813 -100.09133 10993 ft 195 kts 301°
2026-05-04 00:05 25.99530 -100.10395 10992 ft 192 kts 301°
2026-05-04 00:05 26.00237 -100.11637 11003 ft 190 kts 301°
2026-05-04 00:05 26.00952 -100.12889 10993 ft 194 kts 301°
2026-05-04 00:05 26.01679 -100.14172 10956 ft 198 kts 301°
2026-05-04 00:06 26.02355 -100.15537 10703 ft 205 kts 289°
2026-05-04 00:06 26.02422 -100.17098 10492 ft 206 kts 259°
2026-05-04 00:06 26.01771 -100.18520 10283 ft 205 kts 230°
2026-05-04 00:06 26.00654 -100.19433 10081 ft 197 kts 210°
2026-05-04 00:07 25.99494 -100.20188 9802 ft 189 kts 210°
2026-05-04 00:07 25.98368 -100.20934 9408 ft 189 kts 209°
2026-05-04 00:07 25.97235 -100.21701 9024 ft 192 kts 209°
2026-05-04 00:07 25.96093 -100.22492 8627 ft 195 kts 210°
2026-05-04 00:08 25.94943 -100.23296 8203 ft 193 kts 210°
2026-05-04 00:08 25.93821 -100.24084 7806 ft 190 kts 210°
2026-05-04 00:08 25.92715 -100.24862 7408 ft 188 kts 210°
2026-05-04 00:08 25.91667 -100.25603 7028 ft 186 kts 210°
2026-05-04 00:09 25.90571 -100.26383 6618 ft 185 kts 210°
2026-05-04 00:09 25.89517 -100.27136 6224 ft 182 kts 210°
2026-05-04 00:09 25.88395 -100.27830 5819 ft 181 kts 197°
2026-05-04 00:09 25.87205 -100.27857 5435 ft 165 kts 164°
2026-05-04 00:10 25.86313 -100.27200 5053 ft 159 kts 130°
2026-05-04 00:10 25.85867 -100.26014 4678 ft 170 kts 107°
2026-05-04 00:10 25.85456 -100.24759 4291 ft 177 kts 115°
2026-05-04 00:10 25.84897 -100.23532 4048 ft 174 kts 120°
2026-05-04 00:11 25.84307 -100.22427 3936 ft 162 kts 122°
2026-05-04 00:11 25.83742 -100.21404 3735 ft 150 kts 122°
2026-05-04 00:11 25.83206 -100.20431 3542 ft 144 kts 123°
2026-05-04 00:11 25.82708 -100.19523 3330 ft 133 kts 123°
2026-05-04 00:12 25.82241 -100.18678 3097 ft 121 kts 123°
2026-05-04 00:12 25.81837 -100.17936 2923 ft 105 kts 123°
2026-05-04 00:12 25.81479 -100.17281 2714 ft 96 kts 124°
2026-05-04 00:12 25.81246 -100.16859 2572 ft 94 kts 124°
2026-05-04 00:13 25.80797 -100.16042 2302 ft 93 kts 125°
2026-05-04 00:13 25.80462 -100.15432 2101 ft 93 kts 125°
2026-05-04 00:13 25.80236 -100.15019 1966 ft 92 kts 125°
2026-05-04 00:13 25.79904 -100.14416 1804 ft 89 kts 125°
2026-05-04 00:14 25.79633 -100.13845 1683 ft 80 kts 127°
2026-05-04 00:14 25.79356 -100.13341 1554 ft 71 kts 129°
2026-05-04 00:14 25.79095 -100.12871 1467 ft 75 kts 131°
2026-05-04 00:14 25.78804 -100.12374 1419 ft 77 kts 130°
2026-05-04 00:15 25.78536 -100.11889 1332 ft 73 kts 131°
2026-05-04 00:15 25.78290 -100.11424 1284 ft 63 kts 130°
2026-05-04 00:15 25.78095 -100.11084 1282 ft 43 kts 124°
2026-05-04 00:15 25.77958 -100.10834 1282 ft 23 kts 122°
2026-05-04 00:16 25.77927 -100.10827 1282 ft 8 kts 253°
2026-05-04 00:16 25.77924 -100.10930 1282 ft 13 kts 269°
2026-05-04 00:16 25.77924 -100.11000 1282 ft 5 kts 273°
2026-05-04 00:16 25.77925 -100.11028 1282 ft 5 kts 269°
2026-05-04 00:17 25.77926 -100.11098 1282 ft 12 kts 273°
2026-05-04 00:17 25.77894 -100.11158 1282 ft 10 kts 204°
2026-05-04 00:17 25.77833 -100.11190 1282 ft 9 kts 205°
2026-05-04 00:17 25.77773 -100.11158 1282 ft 9 kts 122°
2026-05-04 00:18 25.77730 -100.11077 1282 ft 15 kts 121°
2026-05-04 00:18 25.77644 -100.11016 1282 ft 12 kts 169°
2026-05-04 00:18 25.77581 -100.10998 1282 ft 6 kts 158°
2026-05-04 00:18 25.77526 -100.10982 1282 ft 9 kts 167°
2026-05-04 00:19 25.77450 -100.10982 1282 ft 14 kts 170°
2026-05-04 00:19 25.77399 -100.10935 1282 ft 8 kts 117°
2026-05-04 00:19 25.77392 -100.10927 1282 ft 0 kts 164°